Phoenix Deer Valley, AZ

8:18 PM MST on November 11, 2019 (GMT -0700)
Phoenix-Deer Valley Municipal

Weather History for KDVT - September, 2019

Change the Weather History Date:

Sunday, September 1, 2019

  Actual Average Record
Temperature  
Mean Temperature 92 °F -  
Max Temperature 102 °F 97 °F 107 °F (2007)
Min Temperature 82 °F 77 °F 75 °F (1999)
Cooling Degree Days 27    
Growing Degree Days 42 (Base 50)    
Moisture  
Dew Point 59 °F    
Average Humidity 33    
Maximum Humidity 53    
Minimum Humidity 23    
Precipitation  
Precipitation 0.00 in - - ()
Sea Level Pressure  
Sea Level Pressure 29.84 in    
Wind  
Wind Speed 7 mph ()    
Max Wind Speed 30 mph    
Max Gust Speed 48 mph    
Visibility 10.0 miles    
Events Thunderstorm    
Averages and records for this station are not official NWS values.
T = Trace of Precipitation, MM = Missing Value Source: Averaged Metar Reports

Daily Weather History Graph

Daily Weather History Graph

Search for Another Location

Airport or City:

Astronomy

Sep. 01, 2019 Rise Set
Actual Time 6:02 AM MST 6:54 PM MST
Civil Twilight 5:36 AM MST 7:19 PM MST
Nautical Twilight 5:06 AM MST 7:49 PM MST
Astronomical Twilight 4:35 AM MST 8:20 PM MST
Moon 8:30 AM MST (9/1) 8:51 PM MST (9/1)
Length of Visible Light 13h 42m
Length of Day
12h 51m
Waxing Crescent, 8% of the Moon is Illuminated
Sep 1
Waxing Crescent
Sep 5
First Quarter
Sep 13
Full
Sep 21
Last Quarter
Sep 28
New

Hourly Weather History & Observations

Time (MST) Temp. Heat Index Dew Point Humidity Pressure Visibility Wind Dir Wind Speed Gust Speed Precip Events Conditions
12:53 AM 93.0 °F 90.6 °F 53.1 °F 26% 29.76 in 10.0 mi South 3.5 mph - N/A   Clear
1:53 AM 91.9 °F 90.0 °F 55.0 °F 29% 29.78 in 10.0 mi South 4.6 mph - N/A   Clear
2:53 AM 91.0 °F 90.0 °F 57.9 °F 33% 29.79 in 10.0 mi South 5.8 mph - N/A   Clear
3:53 AM 89.1 °F 88.8 °F 60.1 °F 38% 29.81 in 10.0 mi SW 5.8 mph - N/A   Clear
4:53 AM 87.1 °F 86.5 °F 59.0 °F 39% 29.85 in 10.0 mi SW 5.8 mph - N/A   Clear
5:53 AM 86.0 °F 86.1 °F 61.0 °F 43% 29.86 in 10.0 mi West 5.8 mph - N/A   Clear
6:53 AM 87.1 °F 87.5 °F 62.1 °F 43% 29.89 in 10.0 mi Calm Calm - N/A   Clear
7:53 AM 90.0 °F 90.0 °F 61.0 °F 38% 29.90 in 10.0 mi Variable 3.5 mph - N/A   Clear
8:53 AM 91.0 °F 90.9 °F 61.0 °F 36% 29.90 in 10.0 mi East 8.1 mph - N/A   Clear
9:53 AM 93.0 °F 93.0 °F 61.0 °F 34% 29.89 in 10.0 mi Variable 4.6 mph - N/A   Clear
10:53 AM 95.0 °F 95.2 °F 61.0 °F 32% 29.87 in 10.0 mi Variable 3.5 mph - N/A   Clear
11:53 AM 98.1 °F 98.6 °F 61.0 °F 29% 29.86 in 10.0 mi SSE 6.9 mph - N/A   Clear
12:53 PM 99.0 °F 99.5 °F 61.0 °F 28% 29.84 in 10.0 mi SW 6.9 mph - N/A   Clear
1:53 PM 102.0 °F 101.6 °F 57.9 °F 23% 29.80 in 10.0 mi SW 8.1 mph - N/A   Clear
2:53 PM 102.9 °F 103.0 °F 59.0 °F 23% 29.76 in 10.0 mi SSW 3.5 mph 11.5 mph N/A   Clear
3:53 PM 102.9 °F 103.0 °F 57.9 °F 23% 29.74 in 10.0 mi North - - N/A   Clear
4:53 PM 102.9 °F 103.0 °F 57.9 °F 23% 29.76 in 10.0 mi Variable 3.5 mph - N/A   Clear
5:53 PM 95.0 °F 92.5 °F 53.1 °F 24% 29.79 in 10.0 mi East 29.9 mph 46.0 mph 0.00 in   Partly Cloudy
6:03 PM 93.9 °F 91.7 °F 54.0 °F 26% 29.89 in 10.0 mi East 23.0 mph 40.3 mph N/A Thunderstorm Clear
6:18 PM 95.0 °F - 52.0 °F 23% 29.86 in 10.0 mi ENE 25.3 mph 48.3 mph N/A   Clear
6:53 PM 91.0 °F 89.2 °F 55.9 °F 30% 29.76 in 10.0 mi NE 20.7 mph 36.8 mph N/A   Scattered Clouds
7:53 PM 93.0 °F 90.6 °F 53.1 °F 26% 29.76 in 10.0 mi SSE 4.6 mph - N/A   Clear
8:53 PM 87.1 °F 88.3 °F 64.0 °F 46% 29.91 in 10.0 mi WNW 12.7 mph - N/A   Clear
9:53 PM 84.9 °F 86.6 °F 64.9 °F 51% 29.94 in 10.0 mi WNW 12.7 mph 23.0 mph N/A   Clear
10:53 PM 82.9 °F 84.4 °F 64.0 °F 53% 29.94 in 10.0 mi WSW 4.6 mph - N/A   Clear
11:53 PM 84.0 °F 85.4 °F 64.0 °F 51% 29.91 in 10.0 mi NNW 8.1 mph - N/A   Clear